This is the latest recevied weather packets stored in our database for station/object IW4DZV-13. If no packets are shown the sender has not sent any weather packets the latest 10 day(s).
| Time | Temp. | Humidity | Pressure | Rain* | Wind** | Luminosity | Snow |
|---|---|---|---|---|---|---|---|
| 1777594535 | 7.78° C | 72% | 1025.8 hPa | 0 mm | - | 0 W/m² | - |
| 1777593633 | 7.78° C | 70% | 1025.8 hPa | 0 mm | - | 0 W/m² | - |
| 1777592732 | 7.78° C | 69% | 1025.7 hPa | 0 mm | - | 0 W/m² | - |
| 1777591830 | 7.78° C | 69% | 1025.7 hPa | 0 mm | - | 0 W/m² | - |
| 1777590929 | 8.33° C | 69% | 1025.6 hPa | 0 mm | - | 0 W/m² | - |
| 1777590040 | 8.33° C | 67% | 1025.6 hPa | 0 mm | - | 0 W/m² | - |
| 1777589126 | 8.33° C | 66% | 1025.6 hPa | 0 mm | - | 0 W/m² | - |
| 1777588228 | 8.89° C | 65% | 1025.6 hPa | 0 mm | - | 0 W/m² | - |
| 1777587322 | 8.89° C | 64% | 1025.6 hPa | 0 mm | - | 0 W/m² | - |
| 1777586419 | 8.89° C | 63% | 1025.5 hPa | 0 mm | - | 0 W/m² | - |
| 1777585517 | 9.44° C | 61% | 1025.4 hPa | 0.51 mm | - | 0 W/m² | - |
| 1777584615 | 9.44° C | 60% | 1025.2 hPa | 0.51 mm | - | 0 W/m² | - |
| 1777583713 | 10° C | 60% | 1025.2 hPa | 0.51 mm | - | 0 W/m² | - |
| 1777582812 | 10° C | 58% | 1025.1 hPa | 0.51 mm | - | 0 W/m² | - |
| 1777581912 | 10.56° C | 59% | 1025.1 hPa | 0.51 mm | - | 0 W/m² | - |
| 1777581011 | 10.56° C | 57% | 1024.8 hPa | 0.51 mm | - | 0 W/m² | - |
| 1777580124 | 11.11° C | 55% | 1024.8 hPa | 0.51 mm | - | 0 W/m² | - |
| 1777579208 | 11.67° C | 53% | 1024.6 hPa | 0.51 mm | - | 0 W/m² | - |
| 1777578307 | 12.22° C | 50% | 1024.4 hPa | 0.51 mm | - | 0 W/m² | - |
| 1777577408 | 12.22° C | 50% | 1024.2 hPa | 0.51 mm | - | 0 W/m² | - |
| 1777576564 | 12.78° C | 48% | 1024.1 hPa | 0.51 mm | - | 0 W/m² | - |
| 1777575604 | 12.78° C | 46% | 1023.9 hPa | 0.51 mm | - | 0 W/m² | - |
| 1777574703 | 13.33° C | 45% | 1023.8 hPa | 0.51 mm | - | 0 W/m² | - |
| 1777573805 | 13.89° C | 44% | 1023.7 hPa | 0.51 mm | - | 0 W/m² | - |
| 1777572904 | 13.89° C | 42% | 1023.4 hPa | 0.51 mm | - | 5 W/m² | - |
* Rain since midnight (hover to see other rain measurements)
** Current wind speed in m/s (hover to see current wind gust speed)